Orbital Elements at Epoch 2459200.5 (2020-Dec-17.0) TDB
Reference: JPL 33 (heliocentric ecliptic J2000)
Element | Value | Uncertainty (1-sigma) | Units |
e | .2488379483368496 | 1.2073e-08 | |
a | 2.301533815284602 | 9.2632e-09 | au |
q | 1.728824862661299 | 2.6516e-08 | au |
i | 22.51871759402605 | 7.2201e-07 | deg |
node | 15.29567980814312 | 2.3328e-06 | deg |
peri | 296.6860750921666 | 5.8798e-06 | deg |
M | 244.4972766838762 | 6.5111e-06 | deg |
tp | 2459609.679804438707 (2022-Jan-30.17980444) | 2.4743e-05 | TDB |
period | 1275.335553732102 3.49 | 7.6995e-06 2.108e-08 | d yr |
n | .2822786512510431 | 1.7042e-09 | deg/d |
Q | 2.874242767907904 | 1.1568e-08 | au |
|
| | Orbit Determination Parameters
Additional Information
|